sat.trackr.live / text

‹ back to catalog

SENTINEL-1D

NORAD 66315 · 2025-251A

PAYLOAD ACTIVE UNKNOWN

§ Identity

Operator
Country
ESA
Launch date
2025-11-04
Launch site
FRGUI
Launch vehicle
Mass (kg)
RCS (m²)

External: N2YO · Heavens-Above · Gunter

§ Orbital elements

Epoch: 2026-09-20T11:33:08.621856Z

Period
98.68 min
Inclination
98.1828°
Eccentricity
0.0001332
Mean motion
14.59197956 rev/d
Perigee alt
694.8 km
Apogee alt
696.7 km
Semi-major
7,073.9 km
B*
4.0638e-5
RAAN
269.4929°
Arg perigee
91.0291°
Mean anomaly
269.1061°
Rev number
4,662

§ Raw data

SENTINEL-1D1 66315U 25251A   26263.48134979  .00000146  00000+0  40638-4 0  99952 66315  98.1828 269.4929 0001332  91.0291 269.1061 14.59197956 46620

JSON: /api/v1/satellites/66315 · /tle

For live sub-satellite position, see the globe view (requires WebGL).

§ Visibility from observer

Set your observer location to see the next 7 days of passes ≥ 10°. The values pass through the URL so the page stays shareable.

No JS? Fill the form by hand. The geolocation button needs JavaScript.